Zurück zum Katalog

SL-14 DEB

AktivPO
NORAD 19226·DEBRIS·🇷🇺 Russia

Gestartet Oct 26, 1978 von Plesetsk Cosmodrome

Loading…

Nächste Überflüge (nächste 24 Stunden)

TLE

AktuellSource: Space-Track

Epoche: Sep 14, 2026, 14:12 UTC

1 19226U 78100V   26257.59234177 -.00000001  00000-0 -12131-3 0  9990
2 19226  82.5296 299.6348 0047547  63.0517  92.1205 12.00849478676892

Verfolge SL-14 DEB in Echtzeit mit AllMySat

Download on the App Store